Location: Buena Vista Beach
(41.8098°N, 81.1279°W)
Time: 09:18:11
(UTC+00:00)

Radarsat Rocket - Pass Details

Date: 29 October 2020
Orbit: 933 x 1492 km, 100.6° (Epoch: 26 November)

Event Time Altitude Azimuth Distance (km) Brightness Sun altitude
Rises 22:47:25 0° 169° (S) 3,754 7.1 -5.4°
Reaches altitude 10° 22:49:58 10° 172° (S) 2,752 6.4 -5.9°
Maximum altitude 22:56:00 69° 255° (WSW) 1,012 4.4 -7.0°
Drops below altitude 10° 23:01:48 10° 339° (NNW) 2,650 6.4 -8.0°
Sets 23:04:14 0° 342° (NNW) 3,606 7.1 -8.5°
